Location: Unspecified
(0.0000°N, 0.0000°E)
Time: 06:50:03
(UTC+02:00)

Orbus 21S - Visible Passes

Search period start: 20 August 2014 00:00
Search period end: 30 August 2014 00:00
Orbit: 319 x 33491 km, 24.2° (Epoch: 18 August)

Date Brightness Start Highest point End Pass type
(mag) Time Alt. Az. Time Alt. Az. Time Alt. Az.
20 Aug 9.5 00:00:00 33° E 01:31:01 39° ESE 03:12:40 10° ESE visible
21 Aug 7.6 00:09:01 10° WNW 02:14:26 71° WNW 09:15:31 10° SE visible
21 Aug 7.7 19:29:57 10° NW 02:31:29 58° ESE 04:32:27 10° ESE visible
23 Aug 6.8 01:25:02 10° WNW 03:11:18 51° WNW 10:25:33 10° SE visible
23 Aug 8.2 20:39:53 10° NW 03:02:52 75° SE 05:47:07 10° ESE visible
25 Aug 9.5 02:48:28 10° WNW 04:16:39 30° W 07:45:03 10° W visible
25 Aug 8.4 21:50:18 10° NW 02:19:58 86° SSE 06:59:22 10° SE visible
26 Aug 9.7 22:05:33 16° E 00:26:58 27° ESE 01:55:16 10° ESE visible
27 Aug 10.0 04:53:08 10° W 05:22:15 11° W 05:57:55 10° W visible
27 Aug 8.0 23:01:42 10° NW 01:29:23 83° NW 08:10:14 10° SE visible
28 Aug 7.1 18:25:10 10° NW 01:29:28 46° ESE 03:21:35 10° ESE visible
